Time,TemperatureF,DewpointF,PressureIn,WindDirection,WindDirectionDegrees,WindSpeedMPH,WindSpeedGustMPH,Humidity,HourlyPrecipIn,Conditions,Clouds,dailyrainin,SoftwareType,DateUTC
2013-10-09 00:00:00,60.4,51.7,30.07,SSW,197,3.0,5.0,73,0.00, +TSGR FG,SKC,-99.99,VWS V12.07,2013-10-09 05:00:00,
2013-10-09 00:05:00,60.5,51.8,30.07,SW,234,3.0,6.0,73,0.00, +TSGR FG,SKC,-99.99,VWS V12.07,2013-10-09 05:05:00,
2013-10-09 00:10:00,60.6,51.5,30.07,SSW,194,4.0,4.0,72,0.00, +TSGR FG,SKC,-99.99,VWS V12.07,2013-10-09 05:10:00,
2013-10-09 00:15:00,60.6,51.5,30.07,South,188,2.0,6.0,72,0.00, +TSGR FG,SKC,-99.99,VWS V12.07,2013-10-09 05:15:00,
2013-10-09 00:20:00,60.5,51.4,30.07,SW,225,1.0,2.0,72,0.00, +TSGR FG,SKC,-99.99,VWS V12.07,2013-10-09 05:20:00,
2013-10-09 00:25:00,60.4,51.3,30.07,SSW,198,1.0,8.0,72,0.00, +TSGR FG,SKC,-99.99,VWS V12.07,2013-10-09 05:25:00,
2013-10-09 00:30:00,60.3,51.2,30.07,SSE,160,4.0,4.0,72,0.00, +TSGR FG,SKC,-99.99,VWS V12.07,2013-10-09 05:30:00,
2013-10-09 00:40:00,60.0,51.0,30.07,South,186,4.0,7.0,72,0.00, +TSGR FG,SKC,-99.99,VWS V12.07,2013-10-09 05:40:00,
2013-10-09 00:45:00,60.0,51.0,30.07,SSW,202,3.0,7.0,72,0.00, +TSGR FG,SKC,-99.99,VWS V12.07,2013-10-09 05:45:00,
2013-10-09 00:50:00,59.8,50.8,30.07,SW,217,1.0,1.0,72,0.00, +TSGR FG,SKC,-99.99,VWS V12.07,2013-10-09 05:50:00,
2013-10-09 00:55:00,59.6,51.0,30.07,SW,215,1.0,3.0,73,0.00, +TSGR FG,SKC,-99.99,VWS V12.07,2013-10-09 05:55:00,
2013-10-09 01:00:00,59.5,50.8,30.07,SSW,196,0.0,1.0,73,0.00, +TSGR FG,SKC,-99.99,VWS V12.07,2013-10-09 06:00:00,
2013-10-09 01:05:00,59.3,50.7,30.07,South,184,0.0,4.0,73,0.00, +TSGR FG,SKC,-99.99,VWS V12.07,2013-10-09 06:05:00,
2013-10-09 01:10:00,59.0,50.4,30.08,South,189,2.0,2.0,73,0.00, +TSGR FG,SKC,-99.99,VWS V12.07,2013-10-09 06:10:00,
2013-10-09 01:15:00,59.0,50.7,30.08,WSW,242,0.0,4.0,74,0.00, +TSGR FG,SKC,-99.99,VWS V12.07,2013-10-09 06:15:00,
2013-10-09 01:20:00,58.9,50.6,30.08,SSW,213,0.0,2.0,74,0.00, +TSGR FG,SKC,-99.99,VWS V12.07,2013-10-09 06:20:00,
2013-10-09 01:25:00,58.7,50.5,30.08,SW,230,3.0,5.0,74,0.00, +TSGR FG,SKC,-99.99,VWS V12.07,2013-10-09 06:25:00,
2013-10-09 01:30:00,58.5,50.2,30.08,SSW,209,1.0,2.0,74,0.00, +TSGR FG,SKC,-99.99,VWS V12.07,2013-10-09 06:30:00,
2013-10-09 01:35:00,58.4,50.5,30.08,South,181,3.0,7.0,75,0.00, +TSGR FG,SKC,-99.99,VWS V12.07,2013-10-09 06:35:00,
2013-10-09 01:45:00,58.6,50.3,30.08,SSW,203,3.0,7.0,74,0.00, +TSGR FG,SKC,-99.99,VWS V12.07,2013-10-09 06:45:00,
2013-10-09 01:55:00,58.7,50.1,30.08,SSW,202,1.0,8.0,73,0.00, +TSGR FG,SKC,-99.99,VWS V12.07,2013-10-09 06:55:00,
2013-10-09 02:00:00,58.7,50.1,30.08,South,186,0.0,1.0,73,0.00, +TSGR FG,SKC,-99.99,VWS V12.07,2013-10-09 07:00:00,
2013-10-09 02:05:00,58.5,49.9,30.08,SSW,211,0.0,4.0,73,0.00, +TSGR FG,SKC,-99.99,VWS V12.07,2013-10-09 07:05:00,
2013-10-09 02:10:00,58.2,50.0,30.09,SSW,211,0.0,0.0,74,0.00, +TSGR FG,SKC,-99.99,VWS V12.07,2013-10-09 07:10:00,
2013-10-09 02:15:00,57.9,50.0,30.08,SSW,211,1.0,2.0,75,0.00, +TSGR FG,SKC,-99.99,VWS V12.07,2013-10-09 07:15:00,
2013-10-09 02:20:00,57.5,50.0,30.09,SSW,211,0.0,0.0,76,0.00, +TSGR FG,SKC,-99.99,VWS V12.07,2013-10-09 07:20:00,
2013-10-09 02:25:00,57.1,50.0,30.09,SSW,211,0.0,0.0,77,0.00, +TSGR FG,SKC,-99.99,VWS V12.07,2013-10-09 07:25:00,
2013-10-09 02:30:00,56.7,49.9,30.09,SSW,211,0.0,1.0,78,0.00, +TSGR FG,SKC,-99.99,VWS V12.07,2013-10-09 07:30:00,
2013-10-09 02:35:00,56.4,49.6,30.08,SSW,211,0.0,1.0,78,0.00, +TSGR FG,SKC,-99.99,VWS V12.07,2013-10-09 07:35:00,
2013-10-09 02:40:00,56.1,49.7,30.08,SSW,211,0.0,0.0,79,0.00, +TSGR FG,SKC,-99.99,VWS V12.07,2013-10-09 07:40:00,
2013-10-09 02:45:00,55.7,49.6,30.08,SSW,211,1.0,1.0,80,0.00, +TSGR FG,SKC,-99.99,VWS V12.07,2013-10-09 07:45:00,
2013-10-09 02:50:00,55.4,49.3,30.08,SSW,211,0.0,0.0,80,0.00, +TSGR FG,SKC,-99.99,VWS V12.07,2013-10-09 07:50:00,
2013-10-09 02:55:00,55.2,49.5,30.08,SSW,211,0.0,1.0,81,0.00, +TSGR FG,SKC,-99.99,VWS V12.07,2013-10-09 07:55:00,
2013-10-09 03:00:00,55.0,49.6,30.09,SSW,211,0.0,0.0,82,0.00, +TSGR FG,SKC,-99.99,VWS V12.07,2013-10-09 08:00:00,
2013-10-09 03:05:00,54.8,49.4,30.09,SSW,211,0.0,0.0,82,0.00, +TSGR FG,SKC,-99.99,VWS V12.07,2013-10-09 08:05:00,
2013-10-09 03:10:00,54.5,49.5,30.09,SSW,211,0.0,0.0,83,0.00, +TSGR FG,SKC,-99.99,VWS V12.07,2013-10-09 08:10:00,
2013-10-09 03:15:00,54.4,49.3,30.09,SSW,211,0.0,0.0,83,0.00, +TSGR FG,SKC,-99.99,VWS V12.07,2013-10-09 08:15:00,
2013-10-09 03:20:00,54.2,49.2,30.09,SSW,211,0.0,0.0,83,0.00, +TSGR FG,SKC,-99.99,VWS V12.07,2013-10-09 08:20:00,
2013-10-09 03:25:00,54.1,49.4,30.09,SSW,211,0.0,0.0,84,0.00, +TSGR FG,SKC,-99.99,VWS V12.07,2013-10-09 08:25:00,
2013-10-09 03:30:00,54.0,49.3,30.10,SSW,211,0.0,0.0,84,0.00, +TSGR FG,SKC,-99.99,VWS V12.07,2013-10-09 08:30:00,
2013-10-09 03:35:00,53.8,49.1,30.10,SSW,211,0.0,0.0,84,0.00, +TSGR FG,SKC,-99.99,VWS V12.07,2013-10-09 08:35:00,
2013-10-09 03:40:00,53.7,49.3,30.10,SSW,211,0.0,0.0,85,0.00, +TSGR FG,SKC,-99.99,VWS V12.07,2013-10-09 08:40:00,
2013-10-09 03:45:00,53.5,49.1,30.10,SSW,211,0.0,0.0,85,0.00, +TSGR FG,SKC,-99.99,VWS V12.07,2013-10-09 08:45:00,
2013-10-09 03:50:00,53.2,48.8,30.10,SSW,211,0.0,0.0,85,0.00, +TSGR FG,SKC,-99.99,VWS V12.07,2013-10-09 08:50:00,
2013-10-09 03:55:00,52.9,48.8,30.10,SSW,211,0.0,0.0,86,0.00, +TSGR FG,SKC,-99.99,VWS V12.07,2013-10-09 08:55:00,
2013-10-09 04:00:00,52.6,48.5,30.10,SSW,211,0.0,0.0,86,0.00, +TSGR FG,SKC,-99.99,VWS V12.07,2013-10-09 09:00:00,
2013-10-09 04:05:00,52.4,48.7,30.10,SSW,211,0.0,0.0,87,0.00, +TSGR FG,SKC,-99.99,VWS V12.07,2013-10-09 09:05:00,
2013-10-09 04:10:00,52.3,48.5,30.10,SSW,211,1.0,2.0,87,0.00, +TSGR FG,SKC,-99.99,VWS V12.07,2013-10-09 09:10:00,
2013-10-09 04:15:00,52.6,48.8,30.10,SSW,211,0.0,2.0,87,0.00, +TSGR FG,SKC,-99.99,VWS V12.07,2013-10-09 09:15:00,
2013-10-09 04:20:00,52.9,49.1,30.10,SSW,211,0.0,0.0,87,0.00, +TSGR FG,SKC,-99.99,VWS V12.07,2013-10-09 09:20:00,
2013-10-09 04:25:00,53.1,49.0,30.10,SSW,211,0.0,0.0,86,0.00, +TSGR FG,SKC,-99.99,VWS V12.07,2013-10-09 09:25:00,
2013-10-09 04:30:00,53.1,49.0,30.11,SSW,211,0.0,0.0,86,0.00, +TSGR FG,SKC,-99.99,VWS V12.07,2013-10-09 09:30:00,
2013-10-09 04:35:00,53.3,49.2,30.11,SSW,211,0.0,2.0,86,0.00, +TSGR FG,SKC,-99.99,VWS V12.07,2013-10-09 09:35:00,
2013-10-09 04:40:00,53.4,49.0,30.11,SSW,211,1.0,1.0,85,0.00, +TSGR FG,SKC,-99.99,VWS V12.07,2013-10-09 09:40:00,
2013-10-09 04:45:00,53.6,49.2,30.11,SSW,211,0.0,3.0,85,0.00, +TSGR FG,SKC,-99.99,VWS V12.07,2013-10-09 09:45:00,
2013-10-09 04:50:00,53.7,49.0,30.11,SSW,211,0.0,0.0,84,0.00, +TSGR FG,SKC,-99.99,VWS V12.07,2013-10-09 09:50:00,
2013-10-09 04:55:00,53.8,49.1,30.11,SSW,211,0.0,0.0,84,0.00, +TSGR FG,SKC,-99.99,VWS V12.07,2013-10-09 09:55:00,
2013-10-09 05:00:00,53.9,49.2,30.11,SSW,211,0.0,0.0,84,0.00, +TSGR FG,SKC,-99.99,VWS V12.07,2013-10-09 10:00:00,
2013-10-09 05:05:00,54.0,49.3,30.12,SSW,211,0.0,2.0,84,0.00, +TSGR FG,SKC,-99.99,VWS V12.07,2013-10-09 10:05:00,
2013-10-09 05:10:00,54.1,49.1,30.12,SSW,211,0.0,0.0,83,0.00, +TSGR FG,SKC,-99.99,VWS V12.07,2013-10-09 10:10:00,
2013-10-09 05:15:00,54.0,49.0,30.12,SSW,211,0.0,0.0,83,0.00, +TSGR FG,SKC,-99.99,VWS V12.07,2013-10-09 10:15:00,
2013-10-09 05:20:00,53.9,49.2,30.12,SSW,211,0.0,0.0,84,0.00, +TSGR FG,SKC,-99.99,VWS V12.07,2013-10-09 10:20:00,
2013-10-09 05:25:00,53.8,49.1,30.12,SSW,211,0.0,0.0,84,0.00, +TSGR FG,SKC,-99.99,VWS V12.07,2013-10-09 10:25:00,
2013-10-09 05:30:00,53.5,48.8,30.12,SSW,211,0.0,0.0,84,0.00, +TSGR FG,SKC,-99.99,VWS V12.07,2013-10-09 10:30:00,
2013-10-09 05:35:00,53.3,48.9,30.12,SSW,211,0.0,1.0,85,0.00, +TSGR FG,SKC,-99.99,VWS V12.07,2013-10-09 10:35:00,
2013-10-09 05:40:00,53.1,48.7,30.12,SSW,211,0.0,0.0,85,0.00, +TSGR FG,SKC,-99.99,VWS V12.07,2013-10-09 10:40:00,
2013-10-09 05:45:00,53.0,48.9,30.12,SSW,211,0.0,1.0,86,0.00, +TSGR FG,SKC,-99.99,VWS V12.07,2013-10-09 10:45:00,
2013-10-09 05:50:00,53.0,48.9,30.13,SSW,211,0.0,0.0,86,0.00, +TSGR FG,SKC,-99.99,VWS V12.07,2013-10-09 10:50:00,
2013-10-09 05:55:00,53.0,48.9,30.13,SSW,211,0.0,1.0,86,0.00, +TSGR FG,SKC,-99.99,VWS V12.07,2013-10-09 10:55:00,
2013-10-09 06:00:00,52.9,48.8,30.13,SSW,211,0.0,0.0,86,0.00, +TSGR FG,SKC,-99.99,VWS V12.07,2013-10-09 11:00:00,
2013-10-09 06:05:00,52.7,48.6,30.13,SSW,211,0.0,1.0,86,0.00, +TSGR FG,SKC,-99.99,VWS V12.07,2013-10-09 11:05:00,
2013-10-09 06:10:00,52.6,48.5,30.13,SSW,211,0.0,0.0,86,0.00, +TSGR FG,SKC,-99.99,VWS V12.07,2013-10-09 11:10:00,
2013-10-09 06:15:00,52.4,48.3,30.13,SSW,211,0.0,1.0,86,0.00, +TSGR FG,SKC,-99.99,VWS V12.07,2013-10-09 11:15:00,
2013-10-09 06:20:00,52.3,48.5,30.13,SSW,211,0.0,0.0,87,0.00, +TSGR FG,SKC,-99.99,VWS V12.07,2013-10-09 11:20:00,
2013-10-09 06:25:00,52.0,48.6,30.14,SSW,211,0.0,0.0,88,0.00, +TSGR FG,SKC,-99.99,VWS V12.07,2013-10-09 11:25:00,
2013-10-09 06:30:00,51.8,48.4,30.14,SSW,211,0.0,0.0,88,0.00, +TSGR FG,SKC,-99.99,VWS V12.07,2013-10-09 11:30:00,
2013-10-09 06:35:00,51.5,48.1,30.14,SSW,211,0.0,0.0,88,0.00, +TSGR FG,SKC,-99.99,VWS V12.07,2013-10-09 11:35:00,
2013-10-09 06:40:00,51.1,48.0,30.14,SSW,211,0.0,0.0,89,0.00, +TSGR FG,SKC,-99.99,VWS V12.07,2013-10-09 11:40:00,
2013-10-09 06:45:00,50.8,47.7,30.14,SSW,211,0.0,0.0,89,0.00, +TSGR FG,SKC,-99.99,VWS V12.07,2013-10-09 11:45:00,
2013-10-09 06:50:00,50.6,47.8,30.14,SSW,211,0.0,0.0,90,0.00, +TSGR FG,SKC,-99.99,VWS V12.07,2013-10-09 11:50:00,
2013-10-09 06:55:00,50.4,47.6,30.14,SSW,211,0.0,0.0,90,0.00, +TSGR FG,SKC,-99.99,VWS V12.07,2013-10-09 11:55:00,
2013-10-09 07:00:00,50.2,47.7,30.14,SSW,211,0.0,0.0,91,0.00, +TSGR FG,SKC,-99.99,VWS V12.07,2013-10-09 12:00:00,
2013-10-09 07:05:00,49.9,47.4,30.14,SSW,211,0.0,0.0,91,0.00, +TSGR FG,SKC,-99.99,VWS V12.07,2013-10-09 12:05:00,
2013-10-09 07:10:00,49.9,47.7,30.14,SSW,211,0.0,0.0,92,0.00, +TSGR FG,SKC,-99.99,VWS V12.07,2013-10-09 12:10:00,
2013-10-09 07:15:00,49.9,47.7,30.14,SSW,211,0.0,0.0,92,0.00, +TSGR FG,SKC,-99.99,VWS V12.07,2013-10-09 12:15:00,
2013-10-09 07:20:00,50.0,47.8,30.14,SSW,211,0.0,0.0,92,0.00, +TSGR FG,SKC,-99.99,VWS V12.07,2013-10-09 12:20:00,
2013-10-09 07:25:00,50.2,48.3,30.14,SSW,211,0.0,0.0,93,0.00, +TSGR FG,SKC,-99.99,VWS V12.07,2013-10-09 12:25:00,
2013-10-09 07:30:00,50.6,48.7,30.15,SSW,211,0.0,0.0,93,0.00, +TSGR FG,SKC,-99.99,VWS V12.07,2013-10-09 12:30:00,
2013-10-09 07:35:00,50.9,49.0,30.15,SW,217,0.0,1.0,93,0.00, +TSGR FG,SKC,-99.99,VWS V12.07,2013-10-09 12:35:00,
2013-10-09 07:40:00,51.7,49.8,30.15,SW,217,1.0,2.0,93,0.00, +TSGR FG,SKC,-99.99,VWS V12.07,2013-10-09 12:40:00,
2013-10-09 07:45:00,52.7,50.5,30.15,South,188,1.0,5.0,92,0.00, +TSGR FG,SKC,-99.99,VWS V12.07,2013-10-09 12:45:00,
2013-10-09 07:50:00,53.6,50.7,30.15,SSE,161,1.0,1.0,90,0.00, +TSGR FG,SKC,-99.99,VWS V12.07,2013-10-09 12:50:00,
2013-10-09 07:55:00,54.3,50.5,30.15,South,184,1.0,3.0,87,0.00, +TSGR FG,SKC,-99.99,VWS V12.07,2013-10-09 12:55:00,
2013-10-09 08:00:00,54.9,50.8,30.15,SSW,205,2.0,4.0,86,0.00, +TSGR FG,SKC,-99.99,VWS V12.07,2013-10-09 13:00:00,
2013-10-09 08:05:00,55.4,50.7,30.15,SSW,200,0.0,6.0,84,0.00, +TSGR FG,SKC,-99.99,VWS V12.07,2013-10-09 13:05:00,
2013-10-09 08:10:00,55.8,50.7,30.15,SSW,199,5.0,5.0,83,0.00, +TSGR FG,SKC,-99.99,VWS V12.07,2013-10-09 13:10:00,
2013-10-09 08:15:00,56.0,50.6,30.15,SSW,195,4.0,6.0,82,0.00, +TSGR FG,SKC,-99.99,VWS V12.07,2013-10-09 13:15:00,
2013-10-09 08:20:00,56.3,50.9,30.15,SSE,159,6.0,6.0,82,0.00, +TSGR FG,SKC,-99.99,VWS V12.07,2013-10-09 13:20:00,
2013-10-09 08:25:00,56.6,51.2,30.15,SSW,197,3.0,7.0,82,0.00, +TSGR FG,SKC,-99.99,VWS V12.07,2013-10-09 13:25:00,
2013-10-09 08:30:00,56.9,51.5,30.16,SW,221,0.0,1.0,82,0.00, +TSGR FG,SKC,-99.99,VWS V12.07,2013-10-09 13:30:00,
2013-10-09 08:35:00,57.1,51.3,30.16,South,186,1.0,4.0,81,0.00, +TSGR FG,SKC,-99.99,VWS V12.07,2013-10-09 13:35:00,
2013-10-09 08:40:00,57.3,51.2,30.16,South,169,4.0,4.0,80,0.00, +TSGR FG,SKC,-99.99,VWS V12.07,2013-10-09 13:40:00,
2013-10-09 08:45:00,57.6,51.5,30.16,WSW,242,2.0,5.0,80,0.00, +TSGR FG,SKC,-99.99,VWS V12.07,2013-10-09 13:45:00,
2013-10-09 08:50:00,58.0,51.5,30.16,West,260,2.0,2.0,79,0.00, +TSGR FG,SKC,-99.99,VWS V12.07,2013-10-09 13:50:00,
2013-10-09 08:55:00,58.2,51.7,30.16,SW,229,2.0,6.0,79,0.00, +TSGR FG,SKC,-99.99,VWS V12.07,2013-10-09 13:55:00,
2013-10-09 09:00:00,58.5,51.7,30.16,South,186,1.0,1.0,78,0.00, +TSGR FG,SKC,-99.99,VWS V12.07,2013-10-09 14:00:00,
2013-10-09 09:05:00,58.9,51.7,30.16,SSW,207,3.0,4.0,77,0.00, +TSGR FG,SKC,-99.99,VWS V12.07,2013-10-09 14:05:00,
2013-10-09 09:10:00,59.4,51.8,30.16,South,179,6.0,6.0,76,0.00, +TSGR FG,SKC,-99.99,VWS V12.07,2013-10-09 14:10:00,
2013-10-09 09:15:00,59.8,51.5,30.15,SSW,198,2.0,6.0,74,0.00, +TSGR FG,SKC,-99.99,VWS V12.07,2013-10-09 14:15:00,
2013-10-09 09:20:00,60.2,51.5,30.15,South,189,4.0,4.0,73,0.00, +TSGR FG,SKC,-99.99,VWS V12.07,2013-10-09 14:20:00,
2013-10-09 09:25:00,60.5,51.4,30.15,SSW,201,4.0,7.0,72,0.00, +TSGR FG,SKC,-99.99,VWS V12.07,2013-10-09 14:25:00,
2013-10-09 09:30:00,60.7,51.6,30.15,SSE,167,4.0,5.0,72,0.00, +TSGR FG,SKC,-99.99,VWS V12.07,2013-10-09 14:30:00,
2013-10-09 09:35:00,61.1,52.0,30.15,WSW,239,2.0,6.0,72,0.00, +TSGR FG,SKC,-99.99,VWS V12.07,2013-10-09 14:35:00,
2013-10-09 09:40:00,61.6,52.1,30.15,SSW,201,2.0,2.0,71,0.00, +TSGR FG,SKC,-99.99,VWS V12.07,2013-10-09 14:40:00,
2013-10-09 09:45:00,61.9,51.6,30.15,SSW,209,3.0,6.0,69,0.00, +TSGR FG,SKC,-99.99,VWS V12.07,2013-10-09 14:45:00,
2013-10-09 09:55:00,62.5,51.8,30.15,SSW,212,6.0,6.0,68,0.00, +TSGR FG,SKC,-99.99,VWS V12.07,2013-10-09 14:55:00,
2013-10-09 10:00:00,62.9,50.5,30.15,SSW,202,4.0,4.0,64,0.00, +TSGR FG,SKC,-99.99,VWS V12.07,2013-10-09 15:00:00,
2013-10-09 10:05:00,63.2,51.2,30.15,SSW,202,3.0,10.0,65,0.00, +TSGR FG,SKC,-99.99,VWS V12.07,2013-10-09 15:05:00,
2013-10-09 10:10:00,63.6,51.2,30.15,SSE,164,5.0,6.0,64,0.00, +TSGR FG,SKC,-99.99,VWS V12.07,2013-10-09 15:10:00,
2013-10-09 10:15:00,63.8,50.5,30.15,SSW,192,5.0,7.0,62,0.00, +TSGR FG,SKC,-99.99,VWS V12.07,2013-10-09 15:15:00,
2013-10-09 10:20:00,64.0,49.8,30.15,South,185,11.0,11.0,60,0.00, +TSGR FG,SKC,-99.99,VWS V12.07,2013-10-09 15:20:00,
2013-10-09 10:25:00,64.2,50.5,30.15,SW,225,3.0,11.0,61,0.00, +TSGR FG,SKC,-99.99,VWS V12.07,2013-10-09 15:25:00,
2013-10-09 10:30:00,64.7,51.0,30.15,SSW,211,5.0,5.0,61,0.00, +TSGR FG,SKC,-99.99,VWS V12.07,2013-10-09 15:30:00,
2013-10-09 10:35:00,64.9,50.2,30.15,South,184,3.0,9.0,59,0.00, +TSGR FG,SKC,-99.99,VWS V12.07,2013-10-09 15:35:00,
2013-10-09 10:40:00,65.1,50.0,30.15,South,171,6.0,6.0,58,0.00, +TSGR FG,SKC,-99.99,VWS V12.07,2013-10-09 15:40:00,
2013-10-09 10:45:00,65.2,49.6,30.15,SW,223,4.0,10.0,57,0.00, +TSGR FG,SKC,-99.99,VWS V12.07,2013-10-09 15:45:00,
2013-10-09 10:50:00,65.2,50.1,30.15,SW,228,3.0,6.0,58,0.00, +TSGR FG,SKC,-99.99,VWS V12.07,2013-10-09 15:50:00,
2013-10-09 10:55:00,65.5,50.3,30.15,South,170,6.0,8.0,58,0.00, +TSGR FG,SKC,-99.99,VWS V12.07,2013-10-09 15:55:00,
2013-10-09 11:00:00,65.6,50.4,30.15,South,179,5.0,5.0,58,0.00, +TSGR FG,SKC,-99.99,VWS V12.07,2013-10-09 16:00:00,
2013-10-09 11:05:00,65.9,50.2,30.15,South,191,6.0,7.0,57,0.00, +TSGR FG,SKC,-99.99,VWS V12.07,2013-10-09 16:05:00,
2013-10-09 11:10:00,65.8,49.7,30.15,SSW,208,1.0,3.0,56,0.00, +TSGR FG,SKC,-99.99,VWS V12.07,2013-10-09 16:10:00,
2013-10-09 11:15:00,66.2,50.5,30.14,SSE,167,6.0,10.0,57,0.00, +TSGR FG,SKC,-99.99,VWS V12.07,2013-10-09 16:15:00,
2013-10-09 11:20:00,66.5,49.8,30.15,SSW,200,8.0,9.0,55,0.00, +TSGR FG,SKC,-99.99,VWS V12.07,2013-10-09 16:20:00,
2013-10-09 11:30:00,66.9,50.2,30.14,South,184,1.0,3.0,55,0.00, +TSGR FG,SKC,-99.99,VWS V12.07,2013-10-09 16:30:00,
2013-10-09 11:35:00,67.4,49.7,30.14,SSW,210,1.0,7.0,53,0.00, +TSGR FG,SKC,-99.99,VWS V12.07,2013-10-09 16:35:00,
2013-10-09 11:40:00,67.7,50.0,30.14,South,173,5.0,7.0,53,0.00, +TSGR FG,SKC,-99.99,VWS V12.07,2013-10-09 16:40:00,
2013-10-09 11:45:00,67.6,50.4,30.14,SSW,196,0.0,8.0,54,0.00, +TSGR FG,SKC,-99.99,VWS V12.07,2013-10-09 16:45:00,
2013-10-09 11:50:00,67.7,50.5,30.14,SSE,148,4.0,6.0,54,0.00, +TSGR FG,SKC,-99.99,VWS V12.07,2013-10-09 16:50:00,
2013-10-09 11:55:00,67.8,49.0,30.14,SE,139,5.0,11.0,51,0.00, +TSGR FG,SKC,-99.99,VWS V12.07,2013-10-09 16:55:00,
2013-10-09 12:00:00,67.7,48.9,30.14,SSW,212,2.0,4.0,51,0.00, +TSGR FG,SKC,-99.99,VWS V12.07,2013-10-09 17:00:00,
2013-10-09 12:05:00,67.8,49.5,30.14,SSW,205,3.0,10.0,52,0.00, +TSGR FG,SKC,-99.99,VWS V12.07,2013-10-09 17:05:00,
2013-10-09 12:10:00,67.8,49.5,30.14,South,182,2.0,4.0,52,0.00, +TSGR FG,SKC,-99.99,VWS V12.07,2013-10-09 17:10:00,
2013-10-09 12:15:00,68.0,48.7,30.13,South,183,4.0,9.0,50,0.00, +TSGR FG,SKC,-99.99,VWS V12.07,2013-10-09 17:15:00,
2013-10-09 12:20:00,68.1,48.8,30.13,SSE,156,4.0,5.0,50,0.00, +TSGR FG,SKC,-99.99,VWS V12.07,2013-10-09 17:20:00,
2013-10-09 12:25:00,68.4,49.6,30.13,South,169,5.0,8.0,51,0.00, +TSGR FG,SKC,-99.99,VWS V12.07,2013-10-09 17:25:00,
2013-10-09 12:30:00,68.7,50.4,30.13,SSE,156,6.0,6.0,52,0.00, +TSGR FG,SKC,-99.99,VWS V12.07,2013-10-09 17:30:00,
2013-10-09 12:35:00,68.8,48.9,30.13,South,182,3.0,9.0,49,0.00, +TSGR FG,SKC,-99.99,VWS V12.07,2013-10-09 17:35:00,
2013-10-09 12:40:00,68.8,47.8,30.12,South,180,4.0,4.0,47,0.00, +TSGR FG,SKC,-99.99,VWS V12.07,2013-10-09 17:40:00,
2013-10-09 12:45:00,69.2,49.8,30.12,SE,146,6.0,7.0,50,0.00, +TSGR FG,SKC,-99.99,VWS V12.07,2013-10-09 17:45:00,
2013-10-09 12:50:00,69.6,47.9,30.12,SSE,168,2.0,2.0,46,0.00, +TSGR FG,SKC,-99.99,VWS V12.07,2013-10-09 17:50:00,
2013-10-09 12:55:00,69.5,47.8,30.12,SSE,163,4.0,9.0,46,0.00, +TSGR FG,SKC,-99.99,VWS V12.07,2013-10-09 17:55:00,
2013-10-09 13:00:00,69.7,48.0,30.12,SSE,161,4.0,9.0,46,0.00, +TSGR FG,SKC,-99.99,VWS V12.07,2013-10-09 18:00:00,
2013-10-09 13:05:00,70.1,49.0,30.12,SSW,204,4.0,10.0,47,0.00, +TSGR FG,SKC,-99.99,VWS V12.07,2013-10-09 18:05:00,
2013-10-09 13:10:00,69.8,47.5,30.12,ESE,119,4.0,4.0,45,0.00, +TSGR FG,SKC,-99.99,VWS V12.07,2013-10-09 18:10:00,
2013-10-09 13:15:00,69.8,47.5,30.11,SSW,198,12.0,12.0,45,0.00, +TSGR FG,SKC,-99.99,VWS V12.07,2013-10-09 18:15:00,
2013-10-09 13:20:00,69.9,48.8,30.11,South,178,7.0,7.0,47,0.00, +TSGR FG,SKC,-99.99,VWS V12.07,2013-10-09 18:20:00,
2013-10-09 13:25:00,70.1,48.4,30.11,SSW,198,2.0,9.0,46,0.00, +TSGR FG,SKC,-99.99,VWS V12.07,2013-10-09 18:25:00,
2013-10-09 13:30:00,70.3,48.6,30.11,ESE,103,5.0,5.0,46,0.00, +TSGR FG,SKC,-99.99,VWS V12.07,2013-10-09 18:30:00,
2013-10-09 13:35:00,70.5,48.8,30.11,ESE,106,4.0,7.0,46,0.00, +TSGR FG,SKC,-99.99,VWS V12.07,2013-10-09 18:35:00,
2013-10-09 13:40:00,70.6,48.8,30.11,SSE,147,6.0,6.0,46,0.00, +TSGR FG,SKC,-99.99,VWS V12.07,2013-10-09 18:40:00,
2013-10-09 13:45:00,70.5,47.6,30.11,South,190,6.0,9.0,44,0.00, +TSGR FG,SKC,-99.99,VWS V12.07,2013-10-09 18:45:00,
2013-10-09 13:55:00,71.0,49.2,30.11,SE,143,4.0,7.0,46,0.00, +TSGR FG,SKC,-99.99,VWS V12.07,2013-10-09 18:55:00,
2013-10-09 14:00:00,71.1,49.9,30.10,SE,140,1.0,5.0,47,0.00, +TSGR FG,SKC,-99.99,VWS V12.07,2013-10-09 19:00:00,
2013-10-09 14:05:00,71.2,48.8,30.10,SSE,157,5.0,10.0,45,0.00, +TSGR FG,SKC,-99.99,VWS V12.07,2013-10-09 19:05:00,
2013-10-09 14:10:00,71.0,48.6,30.10,SSE,168,2.0,4.0,45,0.00, +TSGR FG,SKC,-99.99,VWS V12.07,2013-10-09 19:10:00,
2013-10-09 14:15:00,71.0,49.2,30.10,East,89,3.0,6.0,46,0.00, +TSGR FG,SKC,-99.99,VWS V12.07,2013-10-09 19:15:00,
2013-10-09 14:20:00,70.9,49.1,30.10,ESE,123,6.0,6.0,46,0.00, +TSGR FG,SKC,-99.99,VWS V12.07,2013-10-09 19:20:00,
2013-10-09 14:25:00,70.8,50.2,30.10,SE,127,5.0,8.0,48,0.00, +TSGR FG,SKC,-99.99,VWS V12.07,2013-10-09 19:25:00,
2013-10-09 14:30:00,70.9,49.1,30.10,South,173,5.0,6.0,46,0.00, +TSGR FG,SKC,-99.99,VWS V12.07,2013-10-09 19:30:00,
2013-10-09 14:35:00,71.0,49.2,30.10,SE,126,2.0,7.0,46,0.00, +TSGR FG,SKC,-99.99,VWS V12.07,2013-10-09 19:35:00,
2013-10-09 14:40:00,71.0,48.6,30.10,SE,126,4.0,4.0,45,0.00, +TSGR FG,SKC,-99.99,VWS V12.07,2013-10-09 19:40:00,
2013-10-09 14:45:00,70.8,47.2,30.10,SE,126,6.0,9.0,43,0.00, +TSGR FG,SKC,-99.99,VWS V12.07,2013-10-09 19:45:00,
2013-10-09 14:50:00,70.9,48.5,30.09,SSW,206,3.0,5.0,45,0.00, +TSGR FG,SKC,-99.99,VWS V12.07,2013-10-09 19:50:00,
2013-10-09 14:55:00,71.1,47.5,30.10,SE,134,1.0,6.0,43,0.00, +TSGR FG,SKC,-99.99,VWS V12.07,2013-10-09 19:55:00,
2013-10-09 15:00:00,70.8,48.4,30.09,SSE,153,4.0,4.0,45,0.00, +TSGR FG,SKC,-99.99,VWS V12.07,2013-10-09 20:00:00,
2013-10-09 15:05:00,70.5,47.6,30.09,ESE,119,5.0,7.0,44,0.00, +TSGR FG,SKC,-99.99,VWS V12.07,2013-10-09 20:05:00,
2013-10-09 15:10:00,70.4,47.5,30.09,SE,140,5.0,5.0,44,0.00, +TSGR FG,SKC,-99.99,VWS V12.07,2013-10-09 20:10:00,
2013-10-09 15:15:00,70.5,47.6,30.09,SE,138,4.0,7.0,44,0.00, +TSGR FG,SKC,-99.99,VWS V12.07,2013-10-09 20:15:00,
2013-10-09 15:20:00,70.6,46.4,30.09,SE,138,2.0,2.0,42,0.00, +TSGR FG,SKC,-99.99,VWS V12.07,2013-10-09 20:20:00,
2013-10-09 15:25:00,70.4,46.9,30.09,ESE,112,4.0,9.0,43,0.00, +TSGR FG,SKC,-99.99,VWS V12.07,2013-10-09 20:25:00,
2013-10-09 15:30:00,70.4,46.9,30.09,SSE,149,2.0,2.0,43,0.00, +TSGR FG,SKC,-99.99,VWS V12.07,2013-10-09 20:30:00,
2013-10-09 15:35:00,70.5,44.4,30.09,SE,142,5.0,9.0,39,0.00, +TSGR FG,SKC,-99.99,VWS V12.07,2013-10-09 20:35:00,
2013-10-09 15:40:00,70.2,45.4,30.09,SE,130,7.0,7.0,41,0.00, +TSGR FG,SKC,-99.99,VWS V12.07,2013-10-09 20:40:00,
2013-10-09 15:45:00,70.1,44.0,30.09,SSE,163,9.0,12.0,39,0.00, +TSGR FG,SKC,-99.99,VWS V12.07,2013-10-09 20:45:00,
2013-10-09 15:50:00,69.9,44.5,30.09,SE,141,4.0,4.0,40,0.00, +TSGR FG,SKC,-99.99,VWS V12.07,2013-10-09 20:50:00,
2013-10-09 15:55:00,69.8,45.1,30.09,SSE,148,7.0,8.0,41,0.00, +TSGR FG,SKC,-99.99,VWS V12.07,2013-10-09 20:55:00,
2013-10-09 16:00:00,69.7,45.0,30.08,South,184,5.0,8.0,41,0.00, +TSGR FG,SKC,-99.99,VWS V12.07,2013-10-09 21:00:00,
2013-10-09 16:05:00,69.4,46.6,30.08,ESE,119,2.0,10.0,44,0.00, +TSGR FG,SKC,-99.99,VWS V12.07,2013-10-09 21:05:00,
2013-10-09 16:10:00,68.7,48.2,30.08,East,86,3.0,3.0,48,0.00, +TSGR FG,SKC,-99.99,VWS V12.07,2013-10-09 21:10:00,
2013-10-09 16:15:00,68.1,47.7,30.08,ESE,103,4.0,9.0,48,0.00, +TSGR FG,SKC,-99.99,VWS V12.07,2013-10-09 21:15:00,
2013-10-09 16:20:00,67.6,48.3,30.08,East,90,8.0,8.0,50,0.00, +TSGR FG,SKC,-99.99,VWS V12.07,2013-10-09 21:20:00,
2013-10-09 16:25:00,67.2,49.0,30.08,East,97,7.0,9.0,52,0.00, +TSGR FG,SKC,-99.99,VWS V12.07,2013-10-09 21:25:00,
2013-10-09 16:30:00,66.7,49.0,30.08,East,95,6.0,6.0,53,0.00, +TSGR FG,SKC,-99.99,VWS V12.07,2013-10-09 21:30:00,
2013-10-09 16:35:00,66.3,48.7,30.08,SE,124,6.0,11.0,53,0.00, +TSGR FG,SKC,-99.99,VWS V12.07,2013-10-09 21:35:00,
2013-10-09 16:40:00,66.1,49.0,30.08,East,96,4.0,4.0,54,0.00, +TSGR FG,SKC,-99.99,VWS V12.07,2013-10-09 21:40:00,
2013-10-09 16:45:00,66.0,48.9,30.08,ESE,105,5.0,7.0,54,0.00, +TSGR FG,SKC,-99.99,VWS V12.07,2013-10-09 21:45:00,
2013-10-09 16:50:00,65.9,49.3,30.08,ESE,115,4.0,4.0,55,0.00, +TSGR FG,SKC,-99.99,VWS V12.07,2013-10-09 21:50:00,
2013-10-09 17:00:00,65.4,47.8,30.08,SE,134,5.0,6.0,53,0.00, +TSGR FG,SKC,-99.99,VWS V12.07,2013-10-09 22:00:00,
2013-10-09 17:05:00,65.0,47.5,30.08,ESE,114,2.0,9.0,53,0.00, +TSGR FG,SKC,-99.99,VWS V12.07,2013-10-09 22:05:00,
2013-10-09 17:10:00,64.7,47.7,30.08,SSE,159,2.0,2.0,54,0.00, +TSGR FG,SKC,-99.99,VWS V12.07,2013-10-09 22:10:00,
2013-10-09 17:15:00,64.5,48.0,30.08,SE,140,5.0,7.0,55,0.00, +TSGR FG,SKC,-99.99,VWS V12.07,2013-10-09 22:15:00,
2013-10-09 17:20:00,64.2,47.7,30.08,SE,134,5.0,6.0,55,0.00, +TSGR FG,SKC,-99.99,VWS V12.07,2013-10-09 22:20:00,
2013-10-09 17:25:00,63.9,47.9,30.08,ESE,103,2.0,6.0,56,0.00, +TSGR FG,SKC,-99.99,VWS V12.07,2013-10-09 22:25:00,
2013-10-09 17:30:00,63.5,48.0,30.08,SE,126,2.0,2.0,57,0.00, +TSGR FG,SKC,-99.99,VWS V12.07,2013-10-09 22:30:00,
2013-10-09 17:35:00,63.2,47.7,30.08,SE,140,6.0,8.0,57,0.00, +TSGR FG,SKC,-99.99,VWS V12.07,2013-10-09 22:35:00,
2013-10-09 17:40:00,62.8,47.8,30.08,SE,130,5.0,5.0,58,0.00, +TSGR FG,SKC,-99.99,VWS V12.07,2013-10-09 22:40:00,
2013-10-09 17:45:00,62.6,48.1,30.08,SSE,147,1.0,6.0,59,0.00, +TSGR FG,SKC,-99.99,VWS V12.07,2013-10-09 22:45:00,
2013-10-09 17:50:00,62.3,48.2,30.08,SE,136,4.0,5.0,60,0.00, +TSGR FG,SKC,-99.99,VWS V12.07,2013-10-09 22:50:00,
2013-10-09 17:55:00,62.0,48.4,30.08,SE,134,1.0,7.0,61,0.00, +TSGR FG,SKC,-99.99,VWS V12.07,2013-10-09 22:55:00,
2013-10-09 18:05:00,61.4,48.7,30.08,SE,140,1.0,5.0,63,0.00, +TSGR FG,SKC,-99.99,VWS V12.07,2013-10-09 23:05:00,
2013-10-09 18:10:00,61.2,48.9,30.08,SE,140,0.0,0.0,64,0.00, +TSGR FG,SKC,-99.99,VWS V12.07,2013-10-09 23:10:00,
2013-10-09 18:15:00,60.7,48.5,30.08,SE,140,2.0,2.0,64,0.00, +TSGR FG,SKC,-99.99,VWS V12.07,2013-10-09 23:15:00,
2013-10-09 18:25:00,59.9,48.5,30.08,SE,140,0.0,1.0,66,0.00, +TSGR FG,SKC,-99.99,VWS V12.07,2013-10-09 23:25:00,
2013-10-09 18:35:00,59.2,48.7,30.08,SSE,147,0.0,5.0,68,0.00, +TSGR FG,SKC,-99.99,VWS V12.07,2013-10-09 23:35:00,
2013-10-09 18:40:00,58.9,48.8,30.08,SSE,147,1.0,1.0,69,0.00, +TSGR FG,SKC,-99.99,VWS V12.07,2013-10-09 23:40:00,
2013-10-09 18:45:00,58.6,48.5,30.08,SSE,147,0.0,1.0,69,0.00, +TSGR FG,SKC,-99.99,VWS V12.07,2013-10-09 23:45:00,
2013-10-09 18:50:00,58.4,48.7,30.08,SSE,147,0.0,0.0,70,0.00, +TSGR FG,SKC,-99.99,VWS V12.07,2013-10-09 23:50:00,
2013-10-09 18:55:00,57.9,48.6,30.08,SSE,147,0.0,0.0,71,0.00, +TSGR FG,SKC,-99.99,VWS V12.07,2013-10-09 23:55:00,
2013-10-09 19:00:00,57.6,48.7,30.08,SSE,147,0.0,0.0,72,0.00, +TSGR FG,SKC,-99.99,VWS V12.07,2013-10-10 00:00:00,
2013-10-09 19:05:00,57.0,48.4,30.08,SSE,147,0.0,0.0,73,0.00, +TSGR FG,SKC,-99.99,VWS V12.07,2013-10-10 00:05:00,
2013-10-09 19:10:00,56.5,48.7,30.08,SSE,147,0.0,0.0,75,0.00, +TSGR FG,SKC,-99.99,VWS V12.07,2013-10-10 00:10:00,
2013-10-09 19:15:00,56.0,48.5,30.09,SSE,147,0.0,0.0,76,0.00, +TSGR FG,SKC,-99.99,VWS V12.07,2013-10-10 00:15:00,
2013-10-09 19:20:00,55.4,48.3,30.09,SSE,147,0.0,0.0,77,0.00, +TSGR FG,SKC,-99.99,VWS V12.07,2013-10-10 00:20:00,
2013-10-09 19:25:00,54.8,48.1,30.08,SSE,147,0.0,0.0,78,0.00, +TSGR FG,SKC,-99.99,VWS V12.07,2013-10-10 00:25:00,
2013-10-09 19:30:00,54.0,47.6,30.09,SSE,147,0.0,0.0,79,0.00, +TSGR FG,SKC,-99.99,VWS V12.07,2013-10-10 00:30:00,
2013-10-09 19:35:00,53.5,47.8,30.09,SSE,147,0.0,0.0,81,0.00, +TSGR FG,SKC,-99.99,VWS V12.07,2013-10-10 00:35:00,
2013-10-09 19:40:00,53.2,47.9,30.09,SSE,147,0.0,0.0,82,0.00, +TSGR FG,SKC,-99.99,VWS V12.07,2013-10-10 00:40:00,
2013-10-09 19:45:00,52.8,47.5,30.09,SSE,147,0.0,0.0,82,0.00, +TSGR FG,SKC,-99.99,VWS V12.07,2013-10-10 00:45:00,
2013-10-09 19:50:00,52.5,47.8,30.09,SSE,147,0.0,0.0,84,0.00, +TSGR FG,SKC,-99.99,VWS V12.07,2013-10-10 00:50:00,
2013-10-09 19:55:00,52.4,48.0,30.09,SSE,147,0.0,0.0,85,0.00, +TSGR FG,SKC,-99.99,VWS V12.07,2013-10-10 00:55:00,
2013-10-09 20:00:00,52.2,47.8,30.09,SSE,147,0.0,0.0,85,0.00, +TSGR FG,SKC,-99.99,VWS V12.07,2013-10-10 01:00:00,
2013-10-09 20:05:00,51.7,47.0,30.09,SSE,147,0.0,0.0,84,0.00, +TSGR FG,SKC,-99.99,VWS V12.07,2013-10-10 01:05:00,
2013-10-09 20:10:00,51.3,47.0,30.09,SSE,147,0.0,0.0,85,0.00, +TSGR FG,SKC,-99.99,VWS V12.07,2013-10-10 01:10:00,
2013-10-09 20:15:00,51.1,47.1,30.10,SSE,147,0.0,0.0,86,0.00, +TSGR FG,SKC,-99.99,VWS V12.07,2013-10-10 01:15:00,
2013-10-09 20:20:00,50.8,46.8,30.10,SSE,147,0.0,0.0,86,0.00, +TSGR FG,SKC,-99.99,VWS V12.07,2013-10-10 01:20:00,
2013-10-09 20:25:00,50.5,46.8,30.10,SSE,147,0.0,0.0,87,0.00, +TSGR FG,SKC,-99.99,VWS V12.07,2013-10-10 01:25:00,
2013-10-09 20:30:00,50.2,46.5,30.10,SSE,147,0.0,0.0,87,0.00, +TSGR FG,SKC,-99.99,VWS V12.07,2013-10-10 01:30:00,
2013-10-09 20:35:00,49.9,46.2,30.10,SSE,147,0.0,0.0,87,0.00, +TSGR FG,SKC,-99.99,VWS V12.07,2013-10-10 01:35:00,
2013-10-09 20:40:00,49.7,46.3,30.10,SSE,147,0.0,0.0,88,0.00, +TSGR FG,SKC,-99.99,VWS V12.07,2013-10-10 01:40:00,
2013-10-09 20:45:00,49.6,46.5,30.10,SSE,147,0.0,0.0,89,0.00, +TSGR FG,SKC,-99.99,VWS V12.07,2013-10-10 01:45:00,
2013-10-09 20:50:00,49.5,46.7,30.10,SSE,147,0.0,0.0,90,0.00, +TSGR FG,SKC,-99.99,VWS V12.07,2013-10-10 01:50:00,
2013-10-09 20:55:00,49.4,46.6,30.10,SSE,147,0.0,0.0,90,0.00, +TSGR FG,SKC,-99.99,VWS V12.07,2013-10-10 01:55:00,
2013-10-09 21:00:00,49.2,46.4,30.10,SSE,147,0.0,0.0,90,0.00, +TSGR FG,SKC,-99.99,VWS V12.07,2013-10-10 02:00:00,
2013-10-09 21:05:00,49.0,46.2,30.10,SSE,147,0.0,0.0,90,0.00, +TSGR FG,SKC,-99.99,VWS V12.07,2013-10-10 02:05:00,
2013-10-09 21:10:00,48.8,46.3,30.10,SSE,147,0.0,0.0,91,0.00, +TSGR FG,SKC,-99.99,VWS V12.07,2013-10-10 02:10:00,
2013-10-09 21:15:00,48.6,46.1,30.10,SSE,147,0.0,0.0,91,0.00, +TSGR FG,SKC,-99.99,VWS V12.07,2013-10-10 02:15:00,
2013-10-09 21:20:00,48.5,46.0,30.10,SSE,147,0.0,0.0,91,0.00, +TSGR FG,SKC,-99.99,VWS V12.07,2013-10-10 02:20:00,
2013-10-09 21:25:00,48.2,45.7,30.10,SSE,147,0.0,0.0,91,0.00, +TSGR FG,SKC,-99.99,VWS V12.07,2013-10-10 02:25:00,
2013-10-09 21:30:00,48.0,45.5,30.10,SSE,147,0.0,0.0,91,0.00, +TSGR FG,SKC,-99.99,VWS V12.07,2013-10-10 02:30:00,
2013-10-09 21:35:00,47.9,45.4,30.10,SSE,147,0.0,0.0,91,0.00, +TSGR FG,SKC,-99.99,VWS V12.07,2013-10-10 02:35:00,
2013-10-09 21:40:00,47.7,45.2,30.10,SSE,147,0.0,0.0,91,0.00, +TSGR FG,SKC,-99.99,VWS V12.07,2013-10-10 02:40:00,
2013-10-09 21:45:00,47.6,45.4,30.10,SSE,147,0.0,0.0,92,0.00, +TSGR FG,SKC,-99.99,VWS V12.07,2013-10-10 02:45:00,
2013-10-09 21:50:00,47.7,45.5,30.10,SSE,147,0.0,0.0,92,0.00, +TSGR FG,SKC,-99.99,VWS V12.07,2013-10-10 02:50:00,
2013-10-09 21:55:00,47.6,45.4,30.10,SSE,147,0.0,0.0,92,0.00, +TSGR FG,SKC,-99.99,VWS V12.07,2013-10-10 02:55:00,
2013-10-09 22:00:00,47.4,45.2,30.10,SSE,147,0.0,0.0,92,0.00, +TSGR FG,SKC,-99.99,VWS V12.07,2013-10-10 03:00:00,
2013-10-09 22:05:00,47.2,45.0,30.10,SSE,147,0.0,0.0,92,0.00, +TSGR FG,SKC,-99.99,VWS V12.07,2013-10-10 03:05:00,
2013-10-09 22:10:00,47.0,44.8,30.10,SSE,147,0.0,0.0,92,0.00, +TSGR FG,SKC,-99.99,VWS V12.07,2013-10-10 03:10:00,
2013-10-09 22:15:00,46.9,45.0,30.09,SSE,147,0.0,0.0,93,0.00, +TSGR FG,SKC,-99.99,VWS V12.07,2013-10-10 03:15:00,
2013-10-09 22:20:00,46.8,44.9,30.09,SSE,147,0.0,0.0,93,0.00, +TSGR FG,SKC,-99.99,VWS V12.07,2013-10-10 03:20:00,
2013-10-09 22:25:00,46.8,44.9,30.09,SSE,147,0.0,0.0,93,0.00, +TSGR FG,SKC,-99.99,VWS V12.07,2013-10-10 03:25:00,
2013-10-09 22:30:00,47.1,45.5,30.09,SSE,147,0.0,0.0,94,0.00, +TSGR FG,SKC,-99.99,VWS V12.07,2013-10-10 03:30:00,
2013-10-09 22:35:00,47.2,45.6,30.09,SSE,147,0.0,0.0,94,0.00, +TSGR FG,SKC,-99.99,VWS V12.07,2013-10-10 03:35:00,
2013-10-09 22:40:00,48.1,46.7,30.09,SSE,147,0.0,0.0,95,0.00, +TSGR FG,SKC,-99.99,VWS V12.07,2013-10-10 03:40:00,
2013-10-09 22:45:00,48.9,47.5,30.09,SSE,147,0.0,0.0,95,0.00, +TSGR FG,SKC,-99.99,VWS V12.07,2013-10-10 03:45:00,
2013-10-09 22:50:00,49.0,47.6,30.09,SSE,147,0.0,0.0,95,0.00, +TSGR FG,SKC,-99.99,VWS V12.07,2013-10-10 03:50:00,
2013-10-09 22:55:00,48.8,47.2,30.09,SSE,147,0.0,0.0,94,0.00, +TSGR FG,SKC,-99.99,VWS V12.07,2013-10-10 03:55:00,
2013-10-09 23:00:00,48.8,47.2,30.09,SSE,147,0.0,0.0,94,0.00, +TSGR FG,SKC,-99.99,VWS V12.07,2013-10-10 04:00:00,
2013-10-09 23:05:00,48.8,47.2,30.09,SSE,147,0.0,0.0,94,0.00, +TSGR FG,SKC,-99.99,VWS V12.07,2013-10-10 04:05:00,
2013-10-09 23:10:00,48.7,47.0,30.09,SSE,147,0.0,0.0,94,0.00, +TSGR FG,SKC,-99.99,VWS V12.07,2013-10-10 04:10:00,
2013-10-09 23:15:00,48.7,47.3,30.09,SSE,147,0.0,0.0,95,0.00, +TSGR FG,SKC,-99.99,VWS V12.07,2013-10-10 04:15:00,
2013-10-09 23:20:00,48.7,47.3,30.09,SSE,147,0.0,0.0,95,0.00, +TSGR FG,SKC,-99.99,VWS V12.07,2013-10-10 04:20:00,
2013-10-09 23:25:00,48.5,46.9,30.09,SSE,147,0.0,0.0,94,0.00, +TSGR FG,SKC,-99.99,VWS V12.07,2013-10-10 04:25:00,
2013-10-09 23:30:00,48.2,46.6,30.09,SSE,147,0.0,0.0,94,0.00, +TSGR FG,SKC,-99.99,VWS V12.07,2013-10-10 04:30:00,
2013-10-09 23:35:00,48.0,46.4,30.09,SSE,147,0.0,0.0,94,0.00, +TSGR FG,SKC,-99.99,VWS V12.07,2013-10-10 04:35:00,
2013-10-09 23:40:00,47.9,46.3,30.09,SSE,147,0.0,0.0,94,0.00, +TSGR FG,SKC,-99.99,VWS V12.07,2013-10-10 04:40:00,
2013-10-09 23:45:00,47.6,46.0,30.08,SSE,147,0.0,0.0,94,0.00, +TSGR FG,SKC,-99.99,VWS V12.07,2013-10-10 04:45:00,
2013-10-09 23:50:00,47.3,45.7,30.08,SSE,147,0.0,0.0,94,0.00, +TSGR FG,SKC,-99.99,VWS V12.07,2013-10-10 04:50:00,
2013-10-09 23:55:00,47.2,45.6,30.08,SSE,147,0.0,0.0,94,0.00, +TSGR FG,SKC,-99.99,VWS V12.07,2013-10-10 04:55:00,